TJS-5

Last updated on Sun Oct 12 2025 00:02:49 GMT+0000 (Coordinated Universal Time)

1 44978U 20002A 25284.02128084 -.00000346 00000+0 00000+0 0 9994 2 44978 0.1810 90.7279 0004816 83.7718 320.5550 1.00269486 21202
UTC large
Height (km)
Speed (km/s)
/
Latitude / Longitude
Inclination (degrees)
Orbital Period (minutes)
Azimuth
Elevation
Range (km)
Doppler Factor

Next 0 passes for location: London (51.5072 / 0.1276)

Sorry there are no passes over London.